CAPE
725 1205 1469 1510 1435 1253 1128 1005 933 846 755 617 500 450 423 337 337 533 626 672 807 515 26 0 0 0 0 0 0 0 44 9 0 0 5 0 0 0 0 93 141 81 222
678 1463 1475 1509 1557 1462 1270 1087 944 859 725 629 574 485 322 320 551 605 505 545 751 564 0 0 0 0 0 0 0 0 43 106 74 44 7 5 6 8 4 0 5 2 23
853 1692 1802 1552 1635 1531 1370 1138 980 846 756 718 589 373 314 543 576 583 559 556 758 367 4 0 0 0 0 0 0 0 14 31 42 95 8 0 11 18 16 26 24 5 8
1198 1844 1831 1582 1571 1508 1316 1110 935 827 789 692 491 411 578 696 779 859 808 718 719 482 50 0 0 0 0 28 60 55 101 108 175 52 0 0 6 43 29 16 23 21 17
1045 1667 1588 1272 1161 1286 1163 980 788 739 637 533 509 658 814 857 1077 1099 1027 892 858 615 84 37 0 0 16 72 41 29 32 53 21 0 0 0 0 8 11 31 35 40 35
343 1365 821 910 1093 1054 1014 961 821 659 518 498 612 831 906 1044 1082 1191 1098 996 1000 723 112 53 0 3 127 35 27 44 74 91 27 0 0 0 0 6 11 17 19 25 34
861 1050 885 664 827 1012 1107 978 791 644 602 700 778 822 806 826 773 829 948 980 973 681 250 78 45 103 107 15 10 36 44 29 0 0 0 0 0 3 5 10 9 8 22
538 875 624 724 816 715 719 794 632 684 765 837 838 796 902 737 563 619 663 664 672 443 335 289 215 119 31 0 0 0 0 57 16 0 0 0 2 2 3 6 9 12 18
280 489 189 266 512 306 376 432 525 709 781 851 922 841 635 530 436 385 470 557 505 358 311 237 164 63 0 0 0 0 0 22 14 0 0 0 12 6 6 5 6 6 10
66 24 16 15 27 155 271 383 475 516 562 549 440 357 277 320 360 317 286 380 376 346 284 211 86 0 0 0 0 0 0 0 0 0 0 0 7 5 8 4 5 7 11
153 33 79 75 25 136 328 423 566 600 397 324 276 223 117 69 41 195 296 322 346 291 258 140 0 0 0 0 0 0 0 0 0 0 0 2 7 10 10 7 9 12 15
9 7 5 34 61 105 292 319 350 294 181 203 140 111 103 125 169 212 276 211 191 201 161 22 0 0 0 0 0 0 0 0 0 0 0 0 10 18 18 13 10 12 18
4 1 1 0 0 1 6 80 56 116 88 158 148 209 162 158 160 124 114 53 9 1 0 0 0 0 0 0 0 0 0 0 0 0 0 0 3 11 7 8 18 14 17
3 8 3 0 0 0 0 9 70 79 157 146 226 272 238 287 200 92 117 98 25 0 0 0 0 0 0 0 0 0 0 0 0 0 0 0 0 7 27 15 15 13 18
5 5 4 0 0 0 0 0 19 51 126 176 228 309 331 339 424 236 116 88 4 42 0 0 0 0 0 0 0 0 0 0 0 0 0 0 0 0 36 39 26 12 16
4 5 1 3 0 0 0 0 0 37 83 167 210 263 307 376 410 327 334 253 159 35 10 0 0 0 0 0 0 0 0 0 0 0 0 0 0 0 0 64 66 26 22
3 9 11 12 0 0 4 6 27 25 64 45 99 263 297 245 534 456 252 184 127 95 45 0 0 0 0 0 0 0 0 0 0 0 0 0 0 0 8 86 58 25 16
4 12 15 40 5 5 21 0 0 3 25 19 49 324 354 363 477 445 363 201 113 13 0 0 0 0 0 0 0 0 0 0 0 0 0 0 0 0 0 0 0 0 0
0 2 9 0 0 0 0 0 0 15 222 111 67 262 546 474 379 426 304 196 68 19 0 0 0 0 0 0 0 0 0 0 0 0 0 0 0 0 0 0 0 0 0
0 0 0 0 0 0 0 0 25 141 110 75 81 328 310 430 484 463 304 110 15 0 0 0 0 0 0 0 0 0 0 0 0 0 0 0 0 0 0 0 0 0 0
0 0 0 0 0 0 15 58 102 30 79 112 352 338 505 458 388 296 243 66 12 0 0 0 0 0 0 0 0 0 0 0 0 0 0 0 0 0 0 0 0 0 0
0 0 0 0 0 45 82 3 53 14 25 136 460 597 556 444 271 253 247 41 12 0 0 0 0 0 0 0 0 0 0 0 0 0 0 0 0 0 0 0 0 0 0
0 0 0 0 21 95 140 90 31 34 15 97 259 521 503 440 282 163 210 34 1 0 0 0 0 0 0 0 0 0 0 0 0 0 0 0 0 0 0 0 0 0 0
16 0 0 0 0 121 274 392 38 0 14 255 410 318 377 497 356 103 48 1 0 0 0 0 0 0 0 0 0 0 0 0 0 0 0 0 0 0 0 0 0 0 0
110 144 99 75 157 232 308 536 366 101 302 611 459 476 283 281 68 26 0 0 0 0 0 0 0 0 0 0 0 0 0 0 0 0 0 0 0 0 0 0 0 0 0
182 236 334 321 363 416 558 610 577 227 504 509 387 317 265 14 0 0 0 0 0 0 0 0 0 0 0 0 0 0 0 0 0 0 0 0 0 0 0 0 0 0 0
CIN
-142 -56 -1 -0 -0 -3 -8 -14 -28 -35 -37 -47 -47 -31 -16 -11 -1 -0 -0 -0 -0 -0 -0 -0 -0 -0 -0 -0 -0 -0 -6 -11 -0 -0 -0 -0 -0 -0 -0 -5 -0 -5 -0
-9 -4 -49 -10 -0 -0 -0 -8 -22 -28 -36 -39 -33 -31 -33 -16 -0 -0 -0 -0 -0 -0 -0 -0 -0 -0 -0 -0 -0 -0 -15 -24 -42 -36 -22 -0 -0 -0 -0 -0 -0 -0 -0
-13 -0 -4 -10 -0 -0 -0 -5 -21 -30 -31 -30 -32 -42 -27 -0 -0 -0 -0 -0 -0 -0 -1 -0 -0 -0 -0 -0 -0 -0 -43 -48 -46 -52 -4 -0 -2 -0 -0 -0 -0 -0 -0
-16 -1 -0 -8 -0 -0 -0 -6 -21 -22 -23 -27 -46 -31 -1 -0 -0 -0 -1 -0 -0 -1 -13 -0 -0 -0 -0 -25 -71 -81 -91 -87 -48 -14 -0 -0 -0 -0 -0 -0 -0 -0 -0
-44 -1 -2 -15 -7 -0 -0 -9 -26 -31 -36 -45 -25 -0 -0 -0 -0 -0 -1 -0 -0 -0 -10 -25 -0 -0 -36 -64 -75 -80 -87 -123 -50 -0 -0 -0 -0 -0 -0 -0 -0 -0 -0
-64 -14 -51 -23 -11 -0 -0 -7 -23 -31 -39 -36 -1 -0 -0 -0 -0 -0 -1 -0 -0 -0 -19 -40 -0 -7 -48 -81 -94 -99 -152 -156 -44 -0 -0 -0 -0 -0 -0 -0 -0 -0 -0
-77 -68 -47 -17 -35 -8 -5 -2 -11 -17 -10 -1 -0 -0 -0 -0 -2 -3 -2 -0 -0 -0 -18 -50 -56 -49 -58 -98 -92 -130 -139 -131 -0 -0 -0 -0 -0 -0 -0 -0 -0 -0 -0
-61 -29 -9 -6 -1 -7 -2 -9 -17 -3 -2 -1 -0 -0 -0 -3 -15 -9 -7 -4 -1 -12 -23 -31 -35 -54 -76 -0 -0 -0 -0 -128 -16 -0 -0 -0 -0 -0 -0 -0 -0 -0 -0
-45 -8 -1 -7 -1 -5 -15 -12 -6 -3 -3 -3 -2 -1 -8 -20 -27 -32 -27 -21 -21 -37 -38 -42 -54 -72 -0 -0 -0 -0 -0 -134 -103 -0 -0 -0 -0 -0 -0 -0 -0 -0 -0
-73 -76 -11 -25 -29 -7 -3 -6 -7 -9 -11 -8 -23 -35 -41 -44 -39 -47 -49 -36 -38 -44 -47 -54 -72 -0 -0 -0 -0 -0 -0 -0 -0 -0 -0 -0 -0 -0 -0 -0 -0 -0 -0
-74 -94 -28 -11 -51 -2 -4 -7 -6 -6 -37 -32 -50 -70 -106 -121 -167 -47 -54 -49 -46 -64 -65 -75 -0 -0 -0 -0 -0 -0 -0 -0 -0 -0 -0 -0 -0 -0 -0 -0 -0 -0 -0
-197 -115 -73 -18 -18 -3 -1 -6 -8 -30 -23 -36 -78 -101 -64 -66 -57 -78 -70 -95 -95 -86 -86 -70 -0 -0 -0 -0 -0 -0 -0 -0 -0 -0 -0 -0 -0 -0 -0 -0 -0 -0 -0
-0 -0 -0 -0 -0 -17 -2 -15 -58 -31 -21 -72 -78 -38 -80 -91 -121 -149 -150 -191 -286 -28 -0 -0 -0 -0 -0 -0 -0 -0 -0 -0 -0 -0 -0 -0 -0 -0 -0 -0 -0 -0 -0
-0 -0 -0 -0 -0 -0 -0 -76 -39 -46 -61 -47 -46 -55 -78 -67 -106 -138 -106 -116 -179 -0 -0 -0 -0 -0 -0 -0 -0 -0 -0 -0 -0 -0 -0 -0 -0 -0 -0 -0 -0 -0 -0
-0 -0 -0 -0 -0 -0 -0 -0 -80 -31 -45 -40 -66 -63 -67 -65 -63 -85 -89 -55 -53 -39 -0 -0 -0 -0 -0 -0 -0 -0 -0 -0 -0 -0 -0 -0 -0 -0 -0 -0 -0 -0 -0
-0 -0 -0 -0 -0 -0 -0 -0 -0 -64 -43 -87 -45 -43 -58 -51 -35 -32 -19 -26 -17 -28 -13 -0 -0 -0 -0 -0 -0 -0 -0 -0 -0 -0 -0 -0 -0 -0 -0 -0 -0 -0 -0
-0 -0 -0 -0 -2 -0 -62 -22 -23 -33 -31 -33 -33 -43 -40 -22 -17 -25 -12 -17 -36 -19 -12 -0 -0 -0 -0 -0 -0 -0 -0 -0 -0 -0 -0 -0 -0 -0 -11 -1 -0 -0 -0
-0 -0 -0 -0 -17 -24 -47 -78 -0 -40 -13 -21 -44 -21 -27 -12 -22 -27 -15 -9 -15 -33 -0 -0 -0 -0 -0 -0 -0 -0 -0 -0 -0 -0 -0 -0 -0 -0 -0 -0 -0 -0 -0
-0 -0 -0 -0 -0 -0 -0 -0 -26 -58 -12 -8 -27 -32 -26 -27 -8 -23 -15 -34 -30 -33 -0 -0 -0 -0 -0 -0 -0 -0 -0 -0 -0 -0 -0 -0 -0 -0 -0 -0 -0 -0 -0
-0 -0 -0 -0 -0 -0 -0 -0 -39 -17 -17 -31 -71 -48 -14 -10 -14 -14 -18 -35 -58 -0 -0 -0 -0 -0 -0 -0 -0 -0 -0 -0 -0 -0 -0 -0 -0 -0 -0 -0 -0 -0 -0
-0 -0 -0 -0 -0 -0 -12 -11 -28 -17 -12 -23 -55 -24 -17 -26 -9 -26 -19 -66 -79 -0 -0 -0 -0 -0 -0 -0 -0 -0 -0 -0 -0 -0 -0 -0 -0 -0 -0 -0 -0 -0 -0
-0 -0 -0 -0 -0 -7 -9 -8 -21 -44 -47 -31 -22 -17 -18 -17 -10 -19 -16 -89 -107 -0 -0 -0 -0 -0 -0 -0 -0 -0 -0 -0 -0 -0 -0 -0 -0 -0 -0 -0 -0 -0 -0
-0 -0 -0 -0 -13 -27 -11 -18 -24 -34 -52 -14 -18 -35 -15 -14 -8 -28 -23 -69 -11 -0 -0 -0 -0 -0 -0 -0 -0 -0 -0 -0 -0 -0 -0 -0 -0 -0 -0 -0 -0 -0 -0
-143 -0 -0 -0 -0 -33 -12 -7 -45 -0 -43 -14 -17 -19 -25 -19 -9 -53 -60 -6 -0 -0 -0 -0 -0 -0 -0 -0 -0 -0 -0 -0 -0 -0 -0 -0 -0 -0 -0 -0 -0 -0 -0
-137 -142 -136 -108 -70 -44 -23 -21 -32 -52 -26 -46 -20 -21 -24 -25 -131 -136 -0 -0 -0 -0 -0 -0 -0 -0 -0 -0 -0 -0 -0 -0 -0 -0 -0 -0 -0 -0 -0 -0 -0 -0 -0
-164 -132 -83 -57 -35 -25 -31 -25 -19 -43 -17 -57 -25 -22 -27 -193 -0 -0 -0 -0 -0 -0 -0 -0 -0 -0 -0 -0 -0 -0 -0 -0 -0 -0 -0 -0 -0 -0 -0 -0 -0 -0 -0
Wind_Speed
16 19 20 20 21 21 22 22 21 20 19 20 20 20 19 18 18 18 18 17 19 21 22 22 21 21 21 20 18 17 16 17 22 24 22 24 24 24 24 24 21 19 22
6 15 23 25 20 21 22 22 21 20 20 20 20 20 19 18 18 18 18 17 19 21 22 22 21 21 19 16 13 12 12 12 17 24 24 24 23 22 23 22 19 18 21
6 11 18 22 23 22 22 22 21 21 21 21 21 19 19 18 18 17 17 17 18 20 21 21 21 19 17 12 8 8 8 7 2 4 22 12 13 20 20 20 19 22 21
15 12 16 21 21 21 21 21 20 21 21 21 21 20 18 17 17 16 16 16 18 20 21 20 19 18 13 8 7 9 9 7 9 9 12 13 13 20 20 20 20 21 21
15 13 14 23 22 21 20 20 19 20 20 21 20 19 19 18 18 17 16 16 18 19 21 19 18 15 11 8 8 10 11 12 11 19 13 11 9 16 19 20 19 20 21
4 17 15 19 23 21 17 18 19 19 19 21 19 19 19 19 19 17 17 18 18 19 20 18 17 14 9 8 9 9 11 10 2 16 12 13 9 17 18 18 19 20 20
14 15 13 10 21 24 22 18 18 18 18 19 19 20 18 19 19 17 17 18 19 18 18 17 15 12 9 8 10 12 14 17 16 14 12 9 9 17 17 18 18 17 18
11 11 10 17 17 22 20 19 18 17 18 16 18 19 18 18 18 17 17 17 17 18 16 15 13 11 10 9 9 10 10 12 13 15 13 7 13 16 16 16 16 17 18
7 10 10 8 14 16 17 16 16 18 17 16 17 17 17 17 17 18 17 17 17 17 16 14 13 12 10 8 8 10 12 12 6 9 13 6 13 14 14 15 15 15 17
11 15 13 6 10 11 11 16 15 19 20 17 17 16 15 16 17 17 17 16 16 16 15 14 13 12 9 6 4 6 9 12 5 12 9 6 12 12 12 13 14 14 15
10 11 15 13 11 12 11 14 17 19 20 16 16 16 11 8 11 11 13 13 13 14 13 12 12 11 9 7 5 2 7 4 7 8 5 10 10 11 11 11 12 12 13
7 9 10 10 11 13 11 13 12 14 10 8 9 8 5 7 8 10 10 13 11 10 10 10 10 9 7 3 1 2 4 5 8 8 5 10 8 10 10 10 11 11 11
6 11 9 12 6 5 8 7 6 5 7 6 5 7 8 7 7 5 4 4 4 6 4 4 4 3 2 5 5 5 5 5 5 5 6 10 6 8 9 10 10 10 11
11 8 10 9 9 6 4 4 5 5 4 4 5 7 7 4 6 5 4 5 4 4 5 4 3 5 5 5 5 5 5 5 3 4 5 11 7 5 9 10 10 10 10
12 12 10 10 11 10 9 7 7 7 5 4 6 5 4 4 5 5 4 5 4 4 4 5 5 4 4 6 5 5 4 4 5 4 3 9 8 3 5 10 11 11 9
12 13 13 13 12 12 8 10 5 5 3 1 4 3 1 2 4 4 5 4 4 4 3 5 4 4 3 5 5 4 4 5 4 4 4 4 8 6 1 10 11 11 10
11 14 13 14 11 13 12 6 1 3 2 2 2 7 8 5 5 4 3 3 4 3 4 5 3 3 4 3 5 3 3 3 4 3 3 4 5 9 9 7 10 9 9
13 13 14 13 14 11 9 7 7 2 5 8 6 5 6 4 6 3 3 3 4 4 3 3 4 4 3 3 3 2 2 3 3 1 1 4 4 5 8 12 11 10 8
16 15 13 12 16 18 16 15 16 16 7 5 6 6 7 6 5 3 3 4 5 4 3 4 3 3 3 1 4 3 2 1 5 2 3 3 2 4 5 8 11 11 10
17 15 16 14 16 16 12 11 13 7 8 6 5 5 7 5 6 6 5 6 4 4 4 2 3 1 1 2 3 3 4 4 3 3 3 2 4 3 5 6 5 5 10
18 17 18 19 19 14 12 6 4 4 4 3 4 7 7 5 6 6 4 6 5 5 6 5 3 5 2 2 2 5 4 6 4 3 4 4 5 6 3 2 1 4 4
17 18 17 17 15 10 7 7 5 6 5 7 4 6 5 7 8 7 6 5 6 4 5 5 4 3 4 4 1 2 3 1 3 5 3 5 4 3 1 6 5 0 4
21 20 18 18 17 14 15 10 7 7 7 7 9 8 9 7 8 7 7 5 6 4 5 5 4 4 4 3 5 2 2 2 1 3 5 3 5 4 3 4 5 5 4
20 21 21 19 17 14 14 10 12 9 9 6 5 6 8 9 8 6 7 6 5 4 6 5 5 4 1 2 2 3 3 2 2 4 1 4 4 5 6 4 4 3 5
19 20 20 21 20 18 15 13 8 9 7 4 4 5 6 6 7 5 5 6 5 4 4 8 6 5 3 2 2 1 3 3 4 4 4 3 2 4 5 6 6 5 5
22 19 18 18 18 18 19 17 10 7 7 8 6 3 3 4 4 5 5 5 4 4 4 3 4 6 3 1 1 3 2 2 2 2 3 4 3 3 3 5 5 5 4
Wind_Direction
125 128 129 127 127 126 124 123 122 120 118 114 110 106 103 102 101 101 101 98 103 99 95 91 88 85 84 87 89 90 93 97 97 86 70 65 61 57 54 49 55 56 56
119 131 133 132 130 128 125 124 123 123 121 116 113 111 111 108 106 104 103 102 100 101 99 97 93 91 89 93 94 94 89 100 108 100 83 68 64 63 64 61 59 59 57
268 117 132 132 133 132 129 127 127 127 123 119 116 114 113 111 108 106 107 108 108 103 102 100 97 94 91 84 71 78 90 100 139 343 89 80 71 72 65 62 70 65 62
153 154 143 127 129 127 127 128 128 127 123 121 119 119 114 112 107 108 110 114 114 110 107 101 99 96 96 77 42 30 28 27 5 68 66 75 70 60 71 69 62 69 68
137 140 148 134 132 124 128 129 130 127 125 121 123 120 117 113 112 112 117 122 119 112 110 108 103 102 92 65 40 24 4 3 4 75 57 63 70 65 67 66 67 66 67
37 135 124 131 125 124 131 131 130 128 125 122 124 120 116 113 109 109 115 120 120 116 112 110 108 104 82 55 29 10 356 348 104 88 80 70 64 71 71 71 68 66 67
128 123 122 124 130 139 139 131 126 123 121 121 122 116 115 110 107 106 111 114 115 115 115 115 107 96 82 54 26 9 2 357 100 94 88 76 73 69 69 72 72 73 73
122 130 126 125 138 129 133 127 123 121 116 117 116 115 112 110 106 104 104 109 113 114 114 110 104 93 82 54 28 15 360 352 89 100 95 86 78 77 75 75 74 74 76
111 147 122 117 129 115 105 112 116 116 106 107 103 105 107 103 102 103 103 111 117 116 114 112 106 98 85 70 26 3 0 341 330 106 98 90 84 81 81 81 80 79 80
83 83 65 48 73 86 97 104 109 110 98 100 102 101 101 102 103 102 104 111 119 118 117 112 108 102 92 75 33 348 345 318 47 79 87 94 90 85 87 87 88 88 87
109 137 138 133 132 140 137 113 115 107 103 116 118 124 127 125 118 108 98 104 111 114 117 121 126 128 133 158 203 307 316 6 54 84 82 97 102 98 96 96 96 95 94
87 110 108 115 147 145 142 132 125 118 126 130 135 140 98 96 98 92 96 99 103 110 122 138 148 138 167 195 163 314 26 345 81 90 80 75 116 114 114 112 110 106 101
75 103 90 111 90 102 129 139 131 135 135 116 140 87 92 94 101 106 115 112 122 143 141 167 141 187 140 53 54 46 14 6 62 87 98 85 96 134 131 130 129 119 116
91 77 99 107 100 96 84 92 130 115 97 124 123 93 108 118 116 127 151 156 177 191 177 184 124 83 78 78 74 73 58 27 31 112 117 102 86 121 157 147 141 132 131
101 86 78 90 92 88 70 66 69 81 124 113 83 93 100 126 134 167 175 176 188 170 186 99 116 145 119 78 54 54 51 102 352 89 107 118 108 88 176 164 153 144 145
98 104 101 78 77 78 83 78 69 51 58 55 89 80 186 208 175 190 162 186 163 151 179 146 157 165 150 125 101 63 47 22 54 29 140 107 110 95 124 179 167 154 153
114 117 110 108 106 98 92 94 44 125 109 77 143 207 213 207 171 157 169 168 157 187 127 85 125 106 109 111 114 111 162 166 58 12 57 131 108 90 89 140 156 156 162
129 128 132 128 127 117 123 98 72 287 211 195 221 202 202 232 169 213 189 158 147 109 121 150 197 188 128 106 99 178 123 116 91 276 35 75 136 109 79 101 110 110 117
143 151 140 143 142 139 148 165 185 206 188 197 209 201 173 214 168 176 208 185 132 157 177 174 217 160 120 155 172 168 150 245 160 172 101 95 56 121 125 126 127 134 142
151 166 154 156 160 168 173 191 203 172 188 200 230 148 197 211 184 173 237 129 143 190 167 186 154 50 133 163 279 162 172 184 199 174 168 171 139 69 128 158 156 172 172
161 171 168 176 188 195 204 195 191 189 198 214 144 243 173 203 168 179 227 144 179 206 175 179 147 143 239 124 353 270 204 181 178 207 176 191 174 150 226 80 174 136 170
164 173 180 182 184 190 193 198 197 187 196 206 194 194 203 199 191 186 224 177 178 217 163 158 155 179 215 157 203 312 288 174 220 214 199 187 183 157 145 196 202 21 156
171 182 189 185 192 195 197 205 192 187 197 192 198 198 202 193 216 188 201 172 175 222 156 164 179 225 199 174 175 174 316 300 148 172 206 191 172 159 203 266 184 180 196
180 184 194 201 203 197 206 220 190 202 197 184 189 175 195 181 195 207 185 184 185 181 163 172 181 206 206 228 161 184 218 90 354 338 236 206 198 174 195 216 237 195 192
190 187 193 200 205 190 198 217 209 198 184 181 178 183 172 169 154 241 152 176 181 192 194 168 175 175 159 169 216 142 192 184 184 188 277 306 233 213 213 190 191 185 207
189 193 193 204 209 190 194 212 207 190 197 176 179 214 182 163 162 192 213 191 197 209 177 191 147 141 187 119 102 248 217 168 247 203 235 248 240 266 212 188 164 163 192